Total_Precipitation_Accumulation
0.03 0.06 0.11 0.11 0.08 0.07 0.06 0.05 0.05 0.06 0.10 0.18 0.26 0.28 0.24 0.23 0.24 0.23 0.20 0.17 0.21 0.28 0.29 0.28 0.27 0.27 0.30 0.41 0.50 0.64 0.81 0.84 0.81 0.82 0.87 0.91 0.93 0.94 0.96 1.00 1.00 1.00 0.94 0.85
0.04 0.06 0.08 0.07 0.06 0.06 0.06 0.05 0.05 0.07 0.11 0.16 0.24 0.25 0.18 0.18 0.19 0.22 0.26 0.25 0.27 0.37 0.44 0.45 0.43 0.45 0.54 0.65 0.79 0.99 1.19 1.20 1.21 1.21 1.22 1.24 1.23 1.21 1.22 1.21 1.21 1.16 1.09 1.06
0.09 0.09 0.10 0.08 0.07 0.07 0.07 0.07 0.07 0.11 0.16 0.20 0.25 0.23 0.22 0.21 0.21 0.27 0.32 0.37 0.36 0.45 0.57 0.64 0.63 0.62 0.70 0.80 0.94 1.07 1.17 1.15 1.17 1.23 1.27 1.28 1.29 1.30 1.25 1.21 1.18 1.14 1.15 1.14
0.16 0.18 0.19 0.11 0.13 0.13 0.14 0.17 0.19 0.19 0.22 0.27 0.30 0.29 0.30 0.29 0.25 0.26 0.33 0.38 0.43 0.53 0.59 0.63 0.68 0.70 0.78 0.84 0.85 0.96 1.00 0.96 0.96 0.99 0.99 1.00 1.06 1.10 1.09 1.10 1.09 1.06 1.01 0.90
0.28 0.25 0.26 0.25 0.23 0.23 0.26 0.33 0.29 0.31 0.38 0.39 0.38 0.37 0.35 0.34 0.37 0.35 0.38 0.42 0.47 0.54 0.54 0.57 0.61 0.66 0.66 0.71 0.74 0.79 0.83 0.82 0.78 0.79 0.79 0.81 0.86 0.91 0.96 0.96 0.88 0.78 0.70 0.68
0.40 0.40 0.38 0.38 0.42 0.31 0.33 0.56 0.56 0.54 0.51 0.46 0.47 0.54 0.47 0.34 0.30 0.32 0.33 0.35 0.45 0.56 0.55 0.52 0.52 0.54 0.56 0.59 0.63 0.68 0.75 0.80 0.77 0.76 0.76 0.75 0.77 0.78 0.75 0.74 0.70 0.65 0.58 0.57
0.43 0.47 0.49 0.45 0.39 0.37 0.57 0.77 0.77 0.80 0.76 0.62 0.61 0.59 0.48 0.35 0.28 0.26 0.28 0.32 0.38 0.48 0.58 0.56 0.56 0.57 0.60 0.58 0.58 0.59 0.63 0.68 0.68 0.67 0.67 0.66 0.66 0.65 0.64 0.64 0.61 0.55 0.49 0.49
0.61 0.76 0.88 0.66 0.56 0.69 0.79 0.60 0.59 0.73 0.88 0.87 0.76 0.59 0.45 0.34 0.26 0.21 0.19 0.23 0.30 0.38 0.47 0.54 0.59 0.63 0.64 0.60 0.57 0.55 0.59 0.60 0.58 0.59 0.59 0.58 0.59 0.57 0.55 0.53 0.50 0.45 0.43 0.43
0.87 0.98 0.89 0.74 0.72 0.67 0.74 0.82 0.82 0.89 1.01 0.99 0.85 0.60 0.40 0.29 0.22 0.17 0.16 0.17 0.19 0.26 0.35 0.41 0.52 0.61 0.66 0.64 0.62 0.62 0.63 0.63 0.59 0.56 0.58 0.61 0.62 0.62 0.60 0.56 0.54 0.49 0.44 0.37
0.94 1.05 0.90 0.72 0.72 0.70 0.75 0.93 0.98 0.90 0.87 0.80 0.70 0.57 0.42 0.29 0.21 0.17 0.16 0.17 0.19 0.24 0.30 0.33 0.39 0.48 0.57 0.62 0.66 0.67 0.64 0.59 0.56 0.55 0.55 0.58 0.65 0.67 0.65 0.61 0.56 0.48 0.44 0.41
0.97 1.11 1.04 0.92 0.83 0.76 0.80 0.81 0.90 0.82 0.79 0.71 0.60 0.53 0.46 0.37 0.30 0.24 0.22 0.23 0.24 0.25 0.26 0.29 0.33 0.38 0.46 0.53 0.58 0.59 0.60 0.58 0.54 0.50 0.49 0.50 0.53 0.54 0.48 0.48 0.43 0.39 0.37 0.38
1.10 1.14 1.24 1.13 0.92 0.80 0.84 0.80 0.77 0.73 0.74 0.69 0.58 0.53 0.49 0.48 0.43 0.37 0.33 0.31 0.30 0.31 0.30 0.29 0.32 0.36 0.38 0.45 0.55 0.62 0.62 0.56 0.51 0.46 0.44 0.44 0.43 0.43 0.40 0.34 0.31 0.30 0.31 0.28
0.83 1.00 1.12 1.00 0.80 0.74 0.71 0.73 0.74 0.72 0.69 0.64 0.62 0.55 0.51 0.51 0.52 0.49 0.47 0.44 0.39 0.35 0.35 0.35 0.34 0.35 0.35 0.36 0.45 0.55 0.58 0.55 0.50 0.44 0.42 0.40 0.39 0.41 0.45 0.42 0.33 0.30 0.34 0.29
0.71 0.85 1.00 0.91 0.86 0.80 0.62 0.58 0.62 0.64 0.66 0.63 0.63 0.57 0.47 0.44 0.45 0.45 0.44 0.38 0.30 0.26 0.26 0.27 0.29 0.32 0.33 0.32 0.38 0.43 0.46 0.45 0.41 0.38 0.39 0.38 0.37 0.38 0.43 0.49 0.52 0.45 0.41 0.38
0.68 0.69 0.70 0.66 0.70 0.74 0.64 0.54 0.53 0.56 0.55 0.57 0.57 0.52 0.44 0.43 0.43 0.42 0.38 0.32 0.29 0.29 0.27 0.24 0.24 0.26 0.26 0.27 0.31 0.34 0.37 0.32 0.27 0.29 0.31 0.32 0.32 0.33 0.35 0.39 0.46 0.46 0.41 0.40
0.61 0.53 0.49 0.53 0.55 0.58 0.60 0.55 0.52 0.53 0.47 0.48 0.50 0.49 0.45 0.41 0.39 0.37 0.34 0.33 0.33 0.35 0.35 0.31 0.28 0.25 0.22 0.21 0.25 0.27 0.27 0.26 0.21 0.19 0.20 0.24 0.27 0.30 0.31 0.37 0.42 0.44 0.42 0.42
0.51 0.46 0.43 0.42 0.40 0.44 0.48 0.47 0.44 0.41 0.38 0.38 0.40 0.39 0.36 0.33 0.32 0.33 0.33 0.30 0.28 0.29 0.33 0.35 0.33 0.30 0.28 0.25 0.26 0.28 0.25 0.21 0.19 0.16 0.18 0.23 0.27 0.31 0.32 0.38 0.45 0.45 0.40 0.32
0.43 0.37 0.37 0.36 0.31 0.34 0.37 0.33 0.29 0.26 0.26 0.25 0.25 0.26 0.26 0.26 0.25 0.26 0.25 0.23 0.20 0.21 0.21 0.24 0.25 0.23 0.22 0.20 0.21 0.27 0.26 0.22 0.20 0.20 0.20 0.21 0.21 0.27 0.29 0.31 0.34 0.38 0.40 0.34
0.39 0.36 0.34 0.33 0.29 0.28 0.26 0.24 0.20 0.17 0.17 0.17 0.19 0.21 0.20 0.19 0.17 0.16 0.16 0.18 0.20 0.20 0.17 0.13 0.15 0.14 0.16 0.17 0.17 0.19 0.22 0.20 0.18 0.19 0.20 0.18 0.21 0.27 0.28 0.29 0.34 0.40 0.44 0.48
0.36 0.30 0.28 0.27 0.23 0.20 0.20 0.18 0.16 0.15 0.15 0.15 0.16 0.16 0.15 0.13 0.11 0.11 0.12 0.15 0.17 0.16 0.11 0.08 0.08 0.10 0.11 0.13 0.15 0.15 0.19 0.18 0.16 0.18 0.20 0.24 0.26 0.29 0.30 0.30 0.36 0.44 0.51 0.59
0.37 0.27 0.21 0.20 0.16 0.14 0.16 0.15 0.12 0.13 0.13 0.13 0.13 0.13 0.12 0.10 0.08 0.09 0.12 0.16 0.15 0.11 0.09 0.10 0.09 0.09 0.08 0.11 0.13 0.15 0.21 0.25 0.23 0.23 0.23 0.25 0.28 0.29 0.29 0.32 0.39 0.51 0.59 0.64
0.41 0.32 0.24 0.19 0.16 0.15 0.16 0.15 0.11 0.09 0.09 0.10 0.10 0.11 0.11 0.11 0.11 0.12 0.14 0.17 0.16 0.16 0.12 0.10 0.09 0.08 0.07 0.08 0.09 0.14 0.20 0.28 0.31 0.30 0.25 0.23 0.27 0.30 0.31 0.34 0.40 0.45 0.53 0.57
0.36 0.29 0.24 0.21 0.18 0.17 0.17 0.16 0.15 0.14 0.14 0.12 0.10 0.09 0.09 0.11 0.12 0.16 0.20 0.18 0.16 0.15 0.11 0.11 0.10 0.07 0.06 0.07 0.10 0.15 0.16 0.20 0.24 0.25 0.25 0.24 0.27 0.32 0.34 0.34 0.33 0.36 0.44 0.50
0.30 0.24 0.21 0.18 0.16 0.17 0.18 0.17 0.15 0.15 0.17 0.17 0.14 0.11 0.10 0.13 0.16 0.19 0.24 0.26 0.21 0.17 0.15 0.13 0.09 0.07 0.08 0.10 0.13 0.15 0.15 0.15 0.16 0.18 0.19 0.20 0.22 0.26 0.27 0.27 0.27 0.28 0.36 0.48
0.28 0.25 0.21 0.17 0.16 0.15 0.15 0.14 0.15 0.15 0.15 0.16 0.16 0.16 0.15 0.18 0.23 0.29 0.30 0.28 0.26 0.21 0.18 0.14 0.11 0.10 0.10 0.12 0.13 0.13 0.15 0.17 0.17 0.14 0.14 0.18 0.20 0.21 0.21 0.21 0.23 0.26 0.31 0.40
0.26 0.21 0.18 0.16 0.16 0.16 0.15 0.15 0.17 0.19 0.18 0.19 0.19 0.16 0.15 0.20 0.27 0.36 0.37 0.34 0.28 0.22 0.19 0.16 0.13 0.12 0.11 0.12 0.13 0.14 0.15 0.18 0.20 0.18 0.17 0.18 0.19 0.19 0.18 0.20 0.24 0.28 0.32 0.33
0.24 0.19 0.16 0.16 0.16 0.17 0.18 0.18 0.18 0.21 0.24 0.24 0.23 0.20 0.22 0.28 0.34 0.39 0.37 0.34 0.29 0.24 0.18 0.12 0.11 0.12 0.13 0.14 0.14 0.14 0.14 0.16 0.20 0.29 0.43 0.49 0.34 0.20 0.19 0.20 0.23 0.29 0.34 0.33